Flag for Germany Weather past 2 weeks in Freising, Bavaria, Germany

Now
64 °F

Passing clouds.


Feels Like: 64 °F
Forecast: 65 / 88 °F
Wind: 1 mph from East

Location: Muenchen Flughafen

Current Time: Jul 4, 2015 at 2:42:52 AM

Latest Report: Jul 4, 2015 at 2:00 AM


Visibility: 17 mi

Pressure: 30.22 "Hg

Humidity: 94%

Dew point: 62 °F

Location of FreisingLocation

Historic Weather in Freising — Graph

°F

Freising temperature yesterday

Maximum temperature yesterday: 88 °F (at 5:00 PM)
Minimum temperature yesterday: 55 °F (at 6:00 AM)
Average temperature yesterday: 74 °F

Past Weeks' High & Low Weather Summary

 TemperatureHumidityPressure
High88 °F (Jul 3, 5:00 PM)100% (Jun 25, 3:00 AM)30.27 "Hg (Jun 25, 3:00 AM)
Low44 °F (Jun 25, 5:00 AM)34% (Jun 30, 6:00 PM)29.74 "Hg (Jun 22, 11:00 PM)
Average63 °F72%30.10 "Hg
* Reported Jun 19 1:00 AM — Jul 4 1:00 AM, Freising, Weather by CustomWeather, © 2015

Note: Actual official high and low records may vary slightly from our data, if they occured in-between our weather recording intervals... More about our weather records

Advertising

Freising weather history for previous 24 hours

 ConditionsComfort  
Time TempWeatherWind HumidityBarometerVisibility
1:00 AM
Sat, Jul 4
66 °FPassing clouds.1 mph92%30.23 "Hg17 mi
12:00 AM68 °FPassing clouds.1 mph85%30.22 "Hg17 mi
11:00 PM
Fri, Jul 3
74 °FPassing clouds.1 mph69%30.20 "Hg19 mi
10:00 PM77 °FPassing clouds.2 mph63%30.19 "Hg19 mi
9:00 PM80 °FScattered clouds.2 mph56%30.17 "Hg19 mi
8:00 PM84 °FScattered clouds.3 mph49%30.17 "Hg19 mi
7:00 PM87 °FScattered clouds.2 mph53%30.16 "Hg19 mi
6:00 PM87 °FScattered clouds.2 mph48%30.15 "Hg19 mi
5:00 PM88 °FPartly sunny.2 mph46%30.16 "Hg19 mi
4:00 PM88 °FPartly sunny.1 mph47%30.18 "Hg17 mi
3:00 PM86 °FOvercast.1 mph51%30.19 "Hg16 mi
2:00 PM85 °FOvercast.2 mph51%30.20 "Hg16 mi
1:00 PM85 °FPartly sunny.2 mph56%30.21 "Hg16 mi
12:00 PM82 °FPartly sunny.3 mph55%30.21 "Hg16 mi
11:00 AM81 °FScattered clouds.2 mph61%30.22 "Hg14 mi
10:00 AM77 °FPassing clouds.1 mph68%30.24 "Hg12 mi
9:00 AM73 °FPassing clouds.2 mph71%30.24 "Hg12 mi
8:00 AM70 °FPassing clouds.1 mph79%30.24 "Hg11 mi
7:00 AM64 °FPassing clouds.2 mph91%30.25 "Hg8 mi
6:00 AM55 °FFog.No wind99%30.27 "Hg7 mi
5:00 AM56 °FFog.1 mph99%30.26 "Hg9 mi
4:00 AM57 °FFog.No wind99%30.25 "Hg12 mi
3:00 AM58 °FClear.No wind97%30.24 "Hg16 mi
2:00 AM60 °FClear.1 mph95%30.23 "Hg19 mi
Weather by CustomWeather, © 2015

See weather overviewHow to use our weather pages